Regional Weather Roundup
Issued by NWS

Home | Current Version | Previous Version | Graphics & Text | Print | Product List | Glossary On
Versions: 1 2 3 4 5 6 7 8 9 10 11 12 13 14 15 16 17 18 19 20 21 22 23 24 25 26 27 28 29 30 31 32 33 34 35 36 37 38 39 40 41 42 43 44 45 46 47 48 49 50
000
ASUS43 KLMK 290602
RWRKY
KENTUCKY REGIONAL WEATHER ROUNDUP
NATIONAL WEATHER SERVICE LOUISVILLE KY
200 AM EDT SAT AUG 29 2015

NOTE "FAIR" INDICATES FEW OR NO CLOUDS BELOW 12,000 FEET
WITH NO SIGNIFICANT WEATHER AND/OR OBSTRUCTIONS TO VISIBILITY.

KYZ001>023-026-027-061>063-070>075-290700-
WESTERN AND SOUTH CENTRAL KENTUCKY

CITY           SKY/WX    TMP DP  RH WIND       PRES   REMARKS
PADUCAH        FAIR      70  65  84 S5        30.03F
HENDERSON      FAIR      66  61  82 SE3       30.04F
OWENSBORO      FAIR      70  65  84 SE7       30.07S
HOPKINSVILLE   FAIR      72  65  77 SE3       30.07S
BOWLING GREEN  FAIR      68  64  87 CALM      30.09F
GLASGOW        NOT AVBL
$$

KYZ024-025-028>034-038-045-046-053-290700-
NORTH CENTRAL KENTUCKY

CITY           SKY/WX    TMP DP  RH WIND       PRES   REMARKS
LOUISVILLE/SDF FAIR      71  62  73 S6        30.09F
LOUISVILLE/LOU FAIR      72  61  68 SE5       30.10F
FORT KNOX      FAIR      65  62  88 NE1       30.09F
$$

KYZ035>037-039>044-047>052-055>060-089>105-290700-
NORTHEAST KENTUCKY

CITY           SKY/WX    TMP DP  RH WIND       PRES   REMARKS
LEXINGTON      FAIR      69  61  75 SE6       30.14F
COVINGTON      FAIR      66  58  75 SE3       30.13F
FRANKFORT      FAIR      64  60  87 CALM      30.12S
$$

KYZ054-064>069-076>088-106>120-290700-
SOUTHEAST KENTUCKY

CITY           SKY/WX    TMP DP  RH WIND       PRES   REMARKS
JACKSON        FAIR      68  62  81 E3        30.17S
LONDON         FAIR      65  61  87 CALM      30.15F FOG
SOMERSET       NOT AVBL
MIDDLESBORO    FAIR      62  62  97 CALM      30.18S
MONTICELLO     FAIR      61  61 100 CALM      30.17S
$$




USA.gov is the U.S. government's official web portal to all federal, state and local government web resources and services.